AC2EV Weather Reports


time (UTC)temp
C
wind
direction
speed
KPH
gust
KPH
rain 1hr
cm
rain 24hr
cm
rain mn
cm
humidity
%
barometer
mb
20260505050936 18 219 0.0 11.3 0.00 0.00 0.00 61 1001.2
20260505050436 18 192 0.0 11.3 0.00 0.00 0.00 61 1001.2
20260505041431 17 177 0.0 1.6 0.00 0.00 0.00 57 1001.2
20260505040932 17 180 0.0 1.6 0.00 0.00 0.00 57 1001.4
20260505040431 17 153 0.0 0.0 0.00 0.00 0.00 56 1001.3
20260505035932 17 181 0.0 1.6 0.00 0.00 0.00 56 1001.5
20260505035432 17 180 0.0 1.6 0.00 0.00 0.00 55 1001.5
20260505034935 17 172 0.0 1.6 0.00 0.00 0.00 55 1001.6
20260505034433 17 194 0.0 4.8 0.00 0.00 0.00 54 1001.6
20260505033932 18 188 0.0 12.9 0.00 0.00 0.00 54 1001.8
20260505033433 18 186 1.6 12.9 0.00 0.00 0.00 53 1001.8
20260505032931 18 212 1.6 12.9 0.00 0.00 0.00 52 1002.0
20260505032429 18 225 1.6 17.7 0.00 0.00 0.00 51 1001.9
20260505031930 18 220 1.6 17.7 0.00 0.00 0.00 50 1001.6
20260505031429 17 201 0.0 8.0 0.00 0.00 0.00 51 1002.0
20260505030929 17 208 0.0 0.0 0.00 0.00 0.00 50 1001.8
20260505030429 17 207 0.0 0.0 0.00 0.00 0.00 50 1001.6
20260505025930 17 208 0.0 0.0 0.00 0.00 0.00 50 1001.4
20260505025428 17 207 0.0 0.0 0.00 0.00 0.00 50 1001.5
20260505024922 17 207 0.0 0.0 0.00 0.00 0.00 50 1001.5
20260505024416 17 207 0.0 0.0 0.00 0.00 0.00 50 1001.4
20260505023916 17 208 0.0 0.0 0.00 0.00 0.00 50 1001.5
20260505023417 17 208 0.0 0.0 0.00 0.00 0.00 50 1001.5
20260505022916 17 208 0.0 0.0 0.00 0.00 0.00 48 1001.4
20260505022415 17 207 0.0 0.0 0.00 0.00 0.00 48 1001.5
20260505021912 17 208 0.0 0.0 0.00 0.00 0.00 48 1001.5
20260505021412 17 207 0.0 0.0 0.00 0.00 0.00 47 1001.6
20260505020912 18 211 0.0 0.0 0.00 0.00 0.00 47 1001.6
20260505020410 18 211 0.0 0.0 0.00 0.00 0.00 46 1001.8
20260505015910 18 211 0.0 1.6 0.00 0.00 0.00 46 1001.9
20260505015410 18 211 0.0 4.8 0.00 0.00 0.00 46 1001.9
20260505014909 18 217 0.0 4.8 0.00 0.00 0.00 46 1002.0
20260505014406 18 220 0.0 0.0 0.00 0.00 0.00 46 1002.1
20260505013906 18 220 0.0 0.0 0.00 0.00 0.00 45 1002.0
20260505013518 18 220 0.0 0.0 0.00 0.00 0.00 44 1002.0
20260505012904 18 220 0.0 0.0 0.00 0.00 0.00 44 1002.0
20260505012519 18 220 0.0 0.0 0.00 0.00 0.00 43 1001.9
20260505011902 19 220 0.0 0.0 0.00 0.00 0.00 43 1001.9
20260505011401 19 220 0.0 0.0 0.00 0.00 0.00 42 1001.8
20260505010901 19 220 0.0 0.0 0.00 0.00 0.00 42 1001.8
20260505010401 19 219 0.0 0.0 0.00 0.00 0.00 42 1001.8
20260505005901 19 220 0.0 0.0 0.00 0.00 0.00 41 1001.8
20260505005402 20 220 0.0 0.0 0.00 0.00 0.00 41 1001.6
20260505004903 20 220 0.0 0.0 0.00 0.00 0.00 40 1001.6
20260505004402 20 220 0.0 0.0 0.00 0.00 0.00 40 1001.5
20260505003902 20 219 0.0 0.0 0.00 0.00 0.00 39 1001.6
20260505003402 20 219 0.0 0.0 0.00 0.00 0.00 39 1001.5
20260505002902 20 221 0.0 0.0 0.00 0.00 0.00 38 1001.6
20260505002518 20 221 0.0 0.0 0.00 0.00 0.00 37 1001.6
20260505001902 21 230 0.0 1.6 0.00 0.00 0.00 37 1001.6
20260505001401 21 229 0.0 6.4 0.00 0.00 0.00 37 1001.6
20260505000902 21 230 0.0 6.4 0.00 0.00 0.00 36 1001.6
20260505000402 21 234 0.0 0.0 0.00 0.00 0.00 37 1001.8
20260504235901 21 234 0.0 1.6 0.00 0.00 0.00 36 1001.6
20260504235516 21 236 0.0 1.6 0.00 0.03 0.00 35 1001.6
20260504234900 21 229 0.0 0.0 0.00 0.03 0.00 35 1001.6
20260504234517 21 226 0.0 0.0 0.00 0.03 0.00 36 1001.6
20260504233901 22 235 0.0 0.0 0.00 0.03 0.00 35 1001.6
20260504233402 22 242 0.0 0.0 0.00 0.03 0.00 35 1001.6
20260504232901 22 242 0.0 0.0 0.00 0.03 0.00 35 1001.6
20260504232402 22 242 0.0 0.0 0.00 0.03 0.00 34 1001.6
20260504231901 22 252 0.0 11.3 0.00 0.03 0.00 34 1001.6
20260504231401 22 259 1.6 16.1 0.00 0.03 0.00 34 1001.6
20260504230901 22 227 1.6 20.9 0.00 0.03 0.00 33 1001.6
20260504230516 22 235 0.0 20.9 0.00 0.03 0.00 34 1001.6
20260504225900 22 221 1.6 17.7 0.00 0.03 0.00 32 1001.5
20260504225517 22 231 1.6 17.7 0.00 0.03 0.00 32 1001.5
20260504224901 22 233 0.0 4.8 0.00 0.03 0.00 33 1001.5
20260504224402 22 243 1.6 16.1 0.00 0.03 0.00 32 1001.4
20260504223901 23 243 1.6 16.1 0.00 0.03 0.00 32 1001.4
20260504223402 23 275 0.0 11.3 0.00 0.03 0.00 31 1001.4
20260504222901 23 239 1.6 17.7 0.00 0.03 0.00 32 1001.4
20260504222402 23 232 1.6 17.7 0.00 0.03 0.00 31 1001.4
20260504221901 23 219 0.0 16.1 0.00 0.03 0.00 32 1001.3
20260504221401 23 223 1.6 11.3 0.00 0.03 0.00 31 1001.3
20260504220901 23 269 0.0 11.3 0.00 0.03 0.00 31 1001.3
20260504220516 23 229 0.0 11.3 0.00 0.03 0.00 31 1001.3
20260504215901 23 213 0.0 9.7 0.00 0.03 0.00 31 1001.4
20260504215402 23 217 1.6 11.3 0.00 0.03 0.00 31 1001.4
20260504214901 23 244 4.8 27.4 0.00 0.03 0.00 31 1001.4
20260504214402 23 246 4.8 27.4 0.00 0.03 0.00 31 1001.5
20260504213901 23 196 3.2 19.3 0.00 0.03 0.00 31 1001.5
20260504213514 23 204 3.2 22.5 0.00 0.03 0.00 30 1001.5
20260504212901 23 216 4.8 29.0 0.00 0.03 0.00 31 1001.5
20260504212402 23 242 6.4 29.0 0.00 0.03 0.00 31 1001.4
20260504211901 23 276 6.4 30.6 0.00 0.03 0.00 31 1001.6
20260504211401 24 0 4.8 30.6 0.00 0.03 0.00 31 1001.6
20260504210901 24 219 4.8 24.1 0.00 0.03 0.00 31 1001.5
20260504210401 23 213 8.0 29.0 0.00 0.03 0.00 32 1001.6
20260504205901 23 218 8.0 29.0 0.00 0.03 0.00 31 1001.6
20260504205402 24 231 3.2 27.4 0.00 0.03 0.00 31 1001.8
20260504204901 24 222 3.2 20.9 0.00 0.03 0.00 32 1001.8
20260504204401 24 222 3.2 33.8 0.00 0.03 0.00 31 1001.9
20260504203901 24 228 3.2 33.8 0.00 0.03 0.00 31 1001.9
20260504203401 24 246 4.8 25.7 0.00 0.03 0.00 34 1001.9
20260504202901 23 240 8.0 33.8 0.00 0.03 0.00 34 1002.0
20260504202402 23 171 6.4 33.8 0.00 0.03 0.00 33 1002.0
20260504201901 23 235 4.8 32.2 0.00 0.03 0.00 35 1002.0
20260504201403 23 269 11.3 43.5 0.00 0.03 0.00 34 1002.1
20260504200901 23 254 11.3 43.5 0.00 0.03 0.00 34 1002.1
20260504200436 23 205 6.4 35.4 0.00 0.03 0.00 34 1002.2
20260504195956 23 219 6.4 35.4 0.00 0.03 0.00 35 1002.3
20260504195514 23 227 4.8 27.4 0.00 0.03 0.00 34 1002.4
20260504194902 23 233 8.0 30.6 0.00 0.03 0.00 34 1002.3
20260504194403 23 259 6.4 30.6 0.00 0.03 0.00 34 1002.6
20260504193902 23 217 3.2 29.0 0.00 0.03 0.00 37 1002.7
20260504193403 23 200 6.4 32.2 0.00 0.03 0.00 36 1002.7
20260504192517 23 218 4.8 22.5 0.00 0.03 0.00 36 1002.8
20260504191902 23 233 6.4 25.7 0.00 0.03 0.00 38 1003.0
20260504191402 22 225 6.4 25.7 0.00 0.03 0.00 37 1003.0
20260504190902 22 250 8.0 30.6 0.00 0.03 0.00 36 1003.1
20260504190402 22 227 9.7 37.0 0.00 0.03 0.00 37 1003.2
20260504185901 22 236 12.9 40.2 0.00 0.03 0.00 37 1003.5
20260504185403 22 227 17.7 43.5 0.00 0.03 0.00 36 1003.4
20260504184901 22 0 14.5 43.5 0.00 0.03 0.00 37 1003.4
20260504184516 22 202 9.7 33.8 0.00 0.03 0.00 38 1003.4
20260504183901 22 220 8.0 32.2 0.00 0.03 0.00 41 1003.3
20260504183403 22 215 8.0 32.2 0.00 0.03 0.00 40 1003.4
20260504182901 22 269 11.3 43.5 0.00 0.03 0.00 40 1003.6
20260504182402 21 231 14.5 43.5 0.00 0.03 0.00 40 1003.6
20260504181901 21 211 11.3 35.4 0.00 0.03 0.00 40 1003.6
20260504181402 21 251 12.9 32.2 0.00 0.03 0.00 42 1003.7
20260504180901 21 244 8.0 32.2 0.00 0.03 0.00 41 1003.8
20260504180402 22 248 4.8 24.1 0.00 0.03 0.00 42 1003.8
20260504175902 21 0 8.0 27.4 0.00 0.03 0.00 41 1004.0
20260504175401 21 229 6.4 27.4 0.00 0.03 0.00 41 1003.8
20260504174902 21 238 3.2 22.5 0.00 0.03 0.00 44 1003.9
20260504174401 21 0 4.8 24.1 0.00 0.03 0.00 43 1003.9
20260504173901 21 219 6.4 24.1 0.00 0.03 0.00 43 1004.0
20260504173401 21 248 8.0 25.7 0.00 0.03 0.00 44 1004.0
20260504172901 21 199 8.0 32.2 0.00 0.03 0.00 42 1004.1
20260504172400 21 0 4.8 32.2 0.00 0.03 0.00 43 1004.1
20260504171901 21 240 4.8 24.1 0.00 0.03 0.00 44 1004.1
20260504171401 20 241 4.8 25.7 0.00 0.03 0.00 44 1004.1
20260504170901 20 261 4.8 25.7 0.00 0.03 0.00 44 1004.2
20260504170401 20 250 4.8 25.7 0.00 0.03 0.00 45 1004.2
20260504160401 18 202 6.4 30.6 0.00 0.03 0.00 47 1004.7
20260504150901 17 223 8.0 35.4 0.00 0.03 0.00 49 1005.1
20260504150401 17 219 6.4 35.4 0.00 0.03 0.00 47 1005.1
20260504140901 16 0 9.7 30.6 0.00 0.03 0.00 48 1005.0
20260504140401 16 207 6.4 30.6 0.00 0.03 0.00 50 1005.0
20260504130401 15 178 0.0 8.0 0.00 0.03 0.00 53 1005.7
20260504110330 11 174 0.0 4.8 0.00 0.03 0.00 59 1005.8
20260504100330 11 195 0.0 8.0 0.00 0.03 0.00 54 1005.4
20260504081802 11 189 0.0 8.0 0.00 0.03 0.00 57 1006.3
20260504080802 11 207 0.0 12.9 0.00 0.03 0.00 57 1006.4
20260504070250 11 0 1.6 24.1 0.00 0.03 0.00 56 1006.9
20260504060240 11 0 0.0 9.7 0.00 0.03 0.00 55 1007.3